Time+07,TemperatureF,Dew PointF,Humidity,Sea Level PressureIn,VisibilityMPH,Wind Direction,Wind SpeedMPH,Gust SpeedMPH,PrecipitationIn,Events,Conditions,WindDirDegrees,DateUTC
12:00 AM,80.6,73.4,79,29.74,5.6,SSW,8.1,-,N/A,,Mostly Cloudy,210,2013-08-24 17:00:00
12:30 AM,80.6,73.4,79,29.74,5.6,SSW,8.1,-,N/A,,Mostly Cloudy,210,2013-08-24 17:30:00
1:00 AM,78.8,73.4,83,29.71,5.6,Calm,Calm,-,N/A,,Mostly Cloudy,200,2013-08-24 18:00:00
7:00 AM,80.6,73.4,79,29.71,5.6,SSW,10.4,-,N/A,,Mostly Cloudy,200,2013-08-25 00:00:00
7:30 AM,82.4,73.4,74,29.74,6.2,SSW,6.9,-,N/A,,Mostly Cloudy,200,2013-08-25 00:30:00
8:00 AM,84.2,73.4,70,29.74,6.2,South,11.5,-,N/A,,Scattered Clouds,180,2013-08-25 01:00:00
8:30 AM,86.0,75.2,70,29.74,6.2,South,9.2,-,N/A,,Scattered Clouds,190,2013-08-25 01:30:00
9:00 AM,86.0,73.4,66,29.74,6.2,SW,5.8,-,N/A,,Scattered Clouds,220,2013-08-25 02:00:00
9:30 AM,87.8,73.4,62,29.74,6.2,West,6.9,-,N/A,,Scattered Clouds,270,2013-08-25 02:30:00
10:00 AM,87.8,71.6,58,29.74,6.2,West,12.7,-,N/A,,Scattered Clouds,270,2013-08-25 03:00:00
10:30 AM,89.6,71.6,55,29.74,6.2,West,11.5,-,N/A,,Scattered Clouds,270,2013-08-25 03:30:00
11:00 AM,89.6,71.6,55,29.74,6.2,WSW,12.7,-,N/A,,Partly Cloudy,250,2013-08-25 04:00:00
11:30 AM,84.2,73.4,70,29.74,3.1,WSW,11.5,-,N/A,Rain,Rain,250,2013-08-25 04:30:00
12:00 PM,86.0,73.4,66,29.71,5.6,WSW,5.8,-,N/A,,Partly Cloudy,250,2013-08-25 05:00:00
12:30 PM,87.8,73.4,62,29.71,5.6,SW,5.8,-,N/A,,Partly Cloudy,230,2013-08-25 05:30:00
1:00 PM,89.6,75.2,62,29.71,6.2,SW,17.3,-,N/A,,Partly Cloudy,220,2013-08-25 06:00:00
1:30 PM,86.0,75.2,70,29.68,5.6,SW,11.5,-,N/A,,Scattered Clouds,230,2013-08-25 06:30:00
2:00 PM,86.0,71.6,62,29.65,6.2,WSW,12.7,-,N/A,,Scattered Clouds,240,2013-08-25 07:00:00
2:30 PM,87.8,73.4,62,29.68,6.2,WSW,11.5,-,N/A,,Scattered Clouds,240,2013-08-25 07:30:00
3:00 PM,87.8,71.6,58,29.68,6.2,WSW,11.5,-,N/A,,Scattered Clouds,250,2013-08-25 08:00:00
3:30 PM,87.8,71.6,58,29.68,6.2,WSW,13.8,-,N/A,,Scattered Clouds,240,2013-08-25 08:30:00
4:00 PM,87.8,71.6,58,29.65,6.2,WSW,15.0,-,N/A,,Scattered Clouds,240,2013-08-25 09:00:00
4:30 PM,87.8,71.6,58,29.65,6.2,SW,17.3,-,N/A,,Scattered Clouds,230,2013-08-25 09:30:00
5:00 PM,87.8,71.6,58,29.65,6.2,SW,16.1,-,N/A,,Partly Cloudy,230,2013-08-25 10:00:00
5:30 PM,87.8,71.6,58,29.65,6.2,SW,11.5,-,N/A,,Partly Cloudy,220,2013-08-25 10:30:00
6:00 PM,87.8,73.4,62,29.68,6.2,SW,10.4,-,N/A,,Partly Cloudy,220,2013-08-25 11:00:00
6:30 PM,86.0,73.4,66,29.68,6.2,SW,12.7,-,N/A,,Partly Cloudy,230,2013-08-25 11:30:00
7:00 PM,84.2,73.4,70,29.68,6.2,SSW,6.9,-,N/A,,Partly Cloudy,210,2013-08-25 12:00:00
7:30 PM,84.2,75.2,74,29.68,6.2,SW,9.2,-,N/A,,Partly Cloudy,220,2013-08-25 12:30:00
8:00 PM,82.4,75.2,79,29.71,6.2,South,6.9,-,N/A,,Partly Cloudy,190,2013-08-25 13:00:00
9:00 PM,82.4,75.2,79,29.74,6.2,South,4.6,-,N/A,,Partly Cloudy,170,2013-08-25 14:00:00
9:30 PM,82.4,75.2,79,29.74,6.2,SSE,3.5,-,N/A,,Scattered Clouds,160,2013-08-25 14:30:00
10:00 PM,82.4,75.2,79,29.74,6.2,South,4.6,-,N/A,,Scattered Clouds,190,2013-08-25 15:00:00
10:30 PM,82.4,75.2,79,29.77,6.2,South,4.6,-,N/A,,Scattered Clouds,180,2013-08-25 15:30:00
11:00 PM,82.4,75.2,79,29.77,6.2,South,4.6,-,N/A,,Scattered Clouds,170,2013-08-25 16:00:00